Location: Unspecified
(0.0000°N, 0.0000°E)
Time: 17:00:18
(UTC+00:00)

ATLAS 5 CENTAUR DEB - Pass Details

Date: 12 March 2026
Orbit: 7294 x 36414 km, 19.5° (Epoch: 14 February)

Event Time Altitude Azimuth Distance (km) Brightness Sun altitude
Rises 20:45:55 0° 250° (WSW) 21,948 ? -39.0°
Reaches altitude 10° 21:13:13 10° 249° (WSW) 24,502 ? -45.8°
Maximum altitude 23:07:09 23° 254° (WSW) 34,378 ? -74.1°
Drops below altitude 10° 02:25:46 10° 267° (W) 40,955 ? -55.8°
Sets 04:29:28 0° 275° (W) 36,998 ? -25.0°
